Location: Fort Wayne
(41.1310°N, 85.1290°W)
Time: 21:55:01
(UTC-04:00)

Meteor 2-10 Rocket - Visible Passes

Search period start: 19 September 2014 00:00
Search period end: 29 September 2014 00:00
Orbit: 734 x 886 km, 81.2° (Epoch: 03 September)

Date Brightness Start Highest point End Pass type
(mag) Time Alt. Az. Time Alt. Az. Time Alt. Az.
19 Sep 6.2 03:16:49 13° ENE 03:16:49 13° ENE 03:17:46 10° NE visible
19 Sep 4.3 04:58:00 40° NNW 04:58:00 40° NNW 05:01:24 10° N visible
20 Sep 4.7 04:34:30 34° N 04:34:30 34° N 04:37:20 10° N visible
21 Sep 5.3 04:10:59 26° NNE 04:10:59 26° NNE 04:13:11 10° NNE visible
21 Sep 5.5 05:52:09 12° NW 05:52:09 12° NW 05:53:04 10° NW visible
22 Sep 5.8 03:47:25 19° NNE 03:47:25 19° NNE 03:48:55 10° NNE visible
22 Sep 5.4 05:28:36 14° NW 05:28:36 14° NW 05:29:53 10° NNW visible
23 Sep 6.2 03:23:50 14° NNE 03:23:50 14° NNE 03:24:32 10° NNE visible
23 Sep 5.5 05:05:00 16° NNW 05:05:00 16° NNW 05:06:17 10° NNW visible
24 Sep 5.6 04:41:23 16° NNW 04:41:23 16° NNW 04:42:29 10° N visible
25 Sep 5.9 04:17:45 15° N 04:17:45 15° N 04:18:33 10° N visible
26 Sep 6.1 03:54:05 12° N 03:54:05 12° N 03:54:31 10° N visible
